﻿_id,日時,10分間移動積算雨量(mm),1時間移動積算雨量(mm),日雨量(mm),累計雨量(mm)
1,2023-11-13T00:00:00,0,0,1,1
2,2023-11-13T00:01:00,0,0,0,1
3,2023-11-13T00:02:00,0,0,0,1
4,2023-11-13T00:03:00,0,0,0,1
5,2023-11-13T00:04:00,0,0,0,1
6,2023-11-13T00:05:00,0,0,0,1
7,2023-11-13T00:06:00,0,0,0,1
8,2023-11-13T00:07:00,0,0,0,1
9,2023-11-13T00:08:00,0,0,0,1
10,2023-11-13T00:09:00,0,0,0,1
11,2023-11-13T00:10:00,0,0,0,1
12,2023-11-13T00:11:00,0,0,0,1
13,2023-11-13T00:12:00,0,0,0,1
14,2023-11-13T00:13:00,0,0,0,1
15,2023-11-13T00:14:00,0,0,0,1
16,2023-11-13T00:15:00,0,0,0,1
17,2023-11-13T00:16:00,0,0,0,1
18,2023-11-13T00:17:00,0,0,0,1
19,2023-11-13T00:18:00,0,0,0,1
20,2023-11-13T00:19:00,0,0,0,1
21,2023-11-13T00:20:00,0,0,0,1
22,2023-11-13T00:21:00,0,0,0,1
23,2023-11-13T00:22:00,0,0,0,1
24,2023-11-13T00:23:00,0,0,0,1
25,2023-11-13T00:24:00,0,0,0,1
26,2023-11-13T00:25:00,0,0,0,1
27,2023-11-13T00:26:00,0,0,0,1
28,2023-11-13T00:27:00,0,0,0,1
29,2023-11-13T00:28:00,0,0,0,1
30,2023-11-13T00:29:00,0,0,0,1
31,2023-11-13T00:30:00,0,0,0,1
32,2023-11-13T00:31:00,0,0,0,1
33,2023-11-13T00:32:00,0,0,0,1
34,2023-11-13T00:33:00,0,0,0,1
35,2023-11-13T00:34:00,0,0,0,1
36,2023-11-13T00:35:00,0,0,0,1
37,2023-11-13T00:36:00,0,0,0,1
38,2023-11-13T00:37:00,0,0,0,1
39,2023-11-13T00:38:00,0,0,0,1
40,2023-11-13T00:39:00,0,0,0,1
41,2023-11-13T00:40:00,0,0,0,1
42,2023-11-13T00:41:00,0,0,0,1
43,2023-11-13T00:42:00,0,0,0,1
44,2023-11-13T00:43:00,0,0,0,1
45,2023-11-13T00:44:00,0,0,0,1
46,2023-11-13T00:45:00,0,0,0,1
47,2023-11-13T00:46:00,0,0,0,1
48,2023-11-13T00:47:00,0,0,0,1
49,2023-11-13T00:48:00,0,0,0,1
50,2023-11-13T00:49:00,0,0,0,1
51,2023-11-13T00:50:00,0,0,0,1
52,2023-11-13T00:51:00,0,0,0,1
53,2023-11-13T00:52:00,0,0,0,1
54,2023-11-13T00:53:00,0,0,0,1
55,2023-11-13T00:54:00,0,0,0,1
56,2023-11-13T00:55:00,0,0,0,1
57,2023-11-13T00:56:00,0,0,0,1
58,2023-11-13T00:57:00,0,0,0,1
59,2023-11-13T00:58:00,0,0,0,1
60,2023-11-13T00:59:00,0,0,0,1
61,2023-11-13T01:00:00,0,0,0,1
62,2023-11-13T01:01:00,0,0,0,1
63,2023-11-13T01:02:00,0,0,0,1
64,2023-11-13T01:03:00,0,0,0,1
65,2023-11-13T01:04:00,0,0,0,1
66,2023-11-13T01:05:00,0,0,0,1
67,2023-11-13T01:06:00,0,0,0,1
68,2023-11-13T01:07:00,0,0,0,1
69,2023-11-13T01:08:00,0,0,0,1
70,2023-11-13T01:09:00,0,0,0,1
71,2023-11-13T01:10:00,0,0,0,1
72,2023-11-13T01:11:00,0,0,0,1
73,2023-11-13T01:12:00,0,0,0,1
74,2023-11-13T01:13:00,0,0,0,1
75,2023-11-13T01:14:00,0,0,0,1
76,2023-11-13T01:15:00,0,0,0,1
77,2023-11-13T01:16:00,0,0,0,1
78,2023-11-13T01:17:00,0,0,0,1
79,2023-11-13T01:18:00,0,0,0,1
80,2023-11-13T01:19:00,0,0,0,1
81,2023-11-13T01:20:00,0,0,0,1
82,2023-11-13T01:21:00,0,0,0,1
83,2023-11-13T01:22:00,0,0,0,1
84,2023-11-13T01:23:00,0,0,0,1
85,2023-11-13T01:24:00,0,0,0,1
86,2023-11-13T01:25:00,0,0,0,1
87,2023-11-13T01:26:00,0,0,0,1
88,2023-11-13T01:27:00,0,0,0,1
89,2023-11-13T01:28:00,0,0,0,1
90,2023-11-13T01:29:00,0,0,0,1
91,2023-11-13T01:30:00,0,0,0,1
92,2023-11-13T01:31:00,0,0,0,1
93,2023-11-13T01:32:00,0,0,0,1
94,2023-11-13T01:33:00,0,0,0,1
95,2023-11-13T01:34:00,,,,
96,2023-11-13T01:35:00,0,0,0,1
97,2023-11-13T01:36:00,0,0,0,1
98,2023-11-13T01:37:00,0,0,0,1
99,2023-11-13T01:38:00,0,0,0,1
100,2023-11-13T01:39:00,0.5,0.5,0.5,1.5
101,2023-11-13T01:40:00,0.5,0.5,0.5,1.5
102,2023-11-13T01:41:00,0.5,0.5,0.5,1.5
103,2023-11-13T01:42:00,0.5,0.5,0.5,1.5
104,2023-11-13T01:43:00,0.5,0.5,0.5,1.5
105,2023-11-13T01:44:00,0.5,0.5,0.5,1.5
106,2023-11-13T01:45:00,0.5,0.5,0.5,1.5
107,2023-11-13T01:46:00,0.5,0.5,0.5,1.5
108,2023-11-13T01:47:00,0.5,0.5,0.5,1.5
109,2023-11-13T01:48:00,0.5,0.5,0.5,1.5
110,2023-11-13T01:49:00,0,0.5,0.5,1.5
111,2023-11-13T01:50:00,0,0.5,0.5,1.5
112,2023-11-13T01:51:00,0,0.5,0.5,1.5
113,2023-11-13T01:52:00,0,0.5,0.5,1.5
114,2023-11-13T01:53:00,0,0.5,0.5,1.5
115,2023-11-13T01:54:00,0,0.5,0.5,1.5
116,2023-11-13T01:55:00,0,0.5,0.5,1.5
117,2023-11-13T01:56:00,0,0.5,0.5,1.5
118,2023-11-13T01:57:00,0,0.5,0.5,1.5
119,2023-11-13T01:58:00,0,0.5,0.5,1.5
120,2023-11-13T01:59:00,0.5,1,1,2
121,2023-11-13T02:00:00,0.5,1,1,2
122,2023-11-13T02:01:00,0.5,1,1,2
123,2023-11-13T02:02:00,0.5,1,1,2
124,2023-11-13T02:03:00,0.5,1,1,2
125,2023-11-13T02:04:00,0.5,1,1,2
126,2023-11-13T02:05:00,0.5,1,1,2
127,2023-11-13T02:06:00,0.5,1,1,2
128,2023-11-13T02:07:00,0.5,1,1,2
129,2023-11-13T02:08:00,0.5,1,1,2
130,2023-11-13T02:09:00,0,1,1,2
131,2023-11-13T02:10:00,0,1,1,2
132,2023-11-13T02:11:00,0,1,1,2
133,2023-11-13T02:12:00,0,1,1,2
134,2023-11-13T02:13:00,0,1,1,2
135,2023-11-13T02:14:00,0,1,1,2
136,2023-11-13T02:15:00,0,1,1,2
137,2023-11-13T02:16:00,0,1,1,2
138,2023-11-13T02:17:00,0,1,1,2
139,2023-11-13T02:18:00,0,1,1,2
140,2023-11-13T02:19:00,0,1,1,2
141,2023-11-13T02:20:00,0.5,1.5,1.5,2.5
142,2023-11-13T02:21:00,0.5,1.5,1.5,2.5
143,2023-11-13T02:22:00,0.5,1.5,1.5,2.5
144,2023-11-13T02:23:00,0.5,1.5,1.5,2.5
145,2023-11-13T02:24:00,0.5,1.5,1.5,2.5
146,2023-11-13T02:25:00,0.5,1.5,1.5,2.5
147,2023-11-13T02:26:00,0.5,1.5,1.5,2.5
148,2023-11-13T02:27:00,1,2,2,3
149,2023-11-13T02:28:00,1,2,2,3
150,2023-11-13T02:29:00,1.5,2.5,2.5,3.5
151,2023-11-13T02:30:00,1,2.5,2.5,3.5
152,2023-11-13T02:31:00,1,2.5,2.5,3.5
153,2023-11-13T02:32:00,1.5,3,3,4
154,2023-11-13T02:33:00,1.5,3,3,4
155,2023-11-13T02:34:00,1.5,3,3,4
156,2023-11-13T02:35:00,1.5,3,3,4
157,2023-11-13T02:36:00,2,3.5,3.5,4.5
158,2023-11-13T02:37:00,1.5,3.5,3.5,4.5
159,2023-11-13T02:38:00,1.5,3.5,3.5,4.5
160,2023-11-13T02:39:00,1.5,3.5,4,5
161,2023-11-13T02:40:00,1.5,3.5,4,5
162,2023-11-13T02:41:00,2,4,4.5,5.5
163,2023-11-13T02:42:00,1.5,4,4.5,5.5
164,2023-11-13T02:43:00,1.5,4,4.5,5.5
165,2023-11-13T02:44:00,2,4.5,5,6
166,2023-11-13T02:45:00,2,4.5,5,6
167,2023-11-13T02:46:00,1.5,4.5,5,6
168,2023-11-13T02:47:00,2,5,5.5,6.5
169,2023-11-13T02:48:00,2,5,5.5,6.5
170,2023-11-13T02:49:00,2,5.5,6,7
171,2023-11-13T02:50:00,2,5.5,6,7
172,2023-11-13T02:51:00,2,6,6.5,7.5
173,2023-11-13T02:52:00,2,6,6.5,7.5
174,2023-11-13T02:53:00,2.5,6.5,7,8
175,2023-11-13T02:54:00,2,6.5,7,8
176,2023-11-13T02:55:00,2.5,7,7.5,8.5
177,2023-11-13T02:56:00,2.5,7,7.5,8.5
178,2023-11-13T02:57:00,2,7,7.5,8.5
179,2023-11-13T02:58:00,2,7,7.5,8.5
180,2023-11-13T02:59:00,1.5,6.5,7.5,8.5
181,2023-11-13T03:00:00,2,7,8,9
182,2023-11-13T03:01:00,1.5,7,8,9
183,2023-11-13T03:02:00,2,7.5,8.5,9.5
184,2023-11-13T03:03:00,1.5,7.5,8.5,9.5
185,2023-11-13T03:04:00,1.5,7.5,8.5,9.5
186,2023-11-13T03:05:00,1.5,8,9,10
187,2023-11-13T03:06:00,1.5,8,9,10
188,2023-11-13T03:07:00,1.5,8,9,10
189,2023-11-13T03:08:00,2,8.5,9.5,10.5
190,2023-11-13T03:09:00,2,8.5,9.5,10.5
191,2023-11-13T03:10:00,1.5,8.5,9.5,10.5
192,2023-11-13T03:11:00,2,9,10,11
193,2023-11-13T03:12:00,1.5,9,10,11
194,2023-11-13T03:13:00,1.5,9,10,11
195,2023-11-13T03:14:00,2,9.5,10.5,11.5
196,2023-11-13T03:15:00,1.5,9.5,10.5,11.5
197,2023-11-13T03:16:00,2,10,11,12
198,2023-11-13T03:17:00,2,10,11,12
199,2023-11-13T03:18:00,1.5,10,11,12
200,2023-11-13T03:19:00,2,10.5,11.5,12.5
201,2023-11-13T03:20:00,2,10,11.5,12.5
202,2023-11-13T03:21:00,2,10.5,12,13
203,2023-11-13T03:22:00,2,10.5,12,13
204,2023-11-13T03:23:00,2,10.5,12,13
205,2023-11-13T03:24:00,2,11,12.5,13.5
206,2023-11-13T03:25:00,2,11,12.5,13.5
207,2023-11-13T03:26:00,2,11.5,13,14
208,2023-11-13T03:27:00,2,11,13,14
209,2023-11-13T03:28:00,2,11,13,14
210,2023-11-13T03:29:00,2,11,13.5,14.5
211,2023-11-13T03:30:00,2,11,13.5,14.5
212,2023-11-13T03:31:00,1.5,11,13.5,14.5
213,2023-11-13T03:32:00,2,11,14,15
214,2023-11-13T03:33:00,2,11,14,15
215,2023-11-13T03:34:00,1.5,11,14,15
216,2023-11-13T03:35:00,2,11.5,14.5,15.5
217,2023-11-13T03:36:00,1.5,11,14.5,15.5
218,2023-11-13T03:37:00,1.5,11,14.5,15.5
219,2023-11-13T03:38:00,1.5,11,14.5,15.5
220,2023-11-13T03:39:00,1.5,11,15,16
221,2023-11-13T03:40:00,1.5,11,15,16
222,2023-11-13T03:41:00,1.5,10.5,15,16
223,2023-11-13T03:42:00,1.5,11,15.5,16.5
224,2023-11-13T03:43:00,1.5,11,15.5,16.5
225,2023-11-13T03:44:00,1.5,10.5,15.5,16.5
226,2023-11-13T03:45:00,1.5,11,16,17
227,2023-11-13T03:46:00,1.5,11,16,17
228,2023-11-13T03:47:00,2,11,16.5,17.5
229,2023-11-13T03:48:00,2,11,16.5,17.5
230,2023-11-13T03:49:00,1.5,10.5,16.5,17.5
231,2023-11-13T03:50:00,1.5,10.5,16.5,17.5
232,2023-11-13T03:51:00,2,10.5,17,18
233,2023-11-13T03:52:00,1.5,10.5,17,18
234,2023-11-13T03:53:00,1.5,10,17,18
235,2023-11-13T03:54:00,2,10.5,17.5,18.5
236,2023-11-13T03:55:00,1.5,10,17.5,18.5
237,2023-11-13T03:56:00,1.5,10,17.5,18.5
238,2023-11-13T03:57:00,1.5,10.5,18,19
239,2023-11-13T03:58:00,1.5,10.5,18,19
240,2023-11-13T03:59:00,1.5,10.5,18,19
241,2023-11-13T04:00:00,2,10.5,18.5,19.5
242,2023-11-13T04:01:00,1.5,10.5,18.5,19.5
243,2023-11-13T04:02:00,1.5,10,18.5,19.5
244,2023-11-13T04:03:00,1.5,10,18.5,19.5
245,2023-11-13T04:04:00,1.5,10.5,19,20
246,2023-11-13T04:05:00,1.5,10,19,20
247,2023-11-13T04:06:00,1.5,10,19,20
248,2023-11-13T04:07:00,1.5,10.5,19.5,20.5
249,2023-11-13T04:08:00,1.5,10,19.5,20.5
250,2023-11-13T04:09:00,1.5,10,19.5,20.5
251,2023-11-13T04:10:00,1,10,19.5,20.5
252,2023-11-13T04:11:00,1.5,10,20,21
253,2023-11-13T04:12:00,1.5,10,20,21
254,2023-11-13T04:13:00,1.5,10,20,21
255,2023-11-13T04:14:00,1.5,10,20.5,21.5
256,2023-11-13T04:15:00,1.5,10,20.5,21.5
257,2023-11-13T04:16:00,2,10,21,22
258,2023-11-13T04:17:00,1.5,10,21,22
259,2023-11-13T04:18:00,1.5,10,21,22
260,2023-11-13T04:19:00,1.5,9.5,21,22
261,2023-11-13T04:20:00,2,10,21.5,22.5
262,2023-11-13T04:21:00,1.5,9.5,21.5,22.5
263,2023-11-13T04:22:00,1.5,9.5,21.5,22.5
264,2023-11-13T04:23:00,2,10,22,23
265,2023-11-13T04:24:00,1.5,9.5,22,23
266,2023-11-13T04:25:00,1.5,9.5,22,23
267,2023-11-13T04:26:00,1,9,22,23
268,2023-11-13T04:27:00,1.5,9.5,22.5,23.5
269,2023-11-13T04:28:00,1.5,9.5,22.5,23.5
270,2023-11-13T04:29:00,2,9.5,23,24
271,2023-11-13T04:30:00,1.5,9.5,23,24
272,2023-11-13T04:31:00,1.5,9.5,23,24
273,2023-11-13T04:32:00,1.5,9,23,24
274,2023-11-13T04:33:00,1.5,9.5,23.5,24.5
275,2023-11-13T04:34:00,1.5,9.5,23.5,24.5
276,2023-11-13T04:35:00,1.5,9,23.5,24.5
277,2023-11-13T04:36:00,2,9.5,24,25
278,2023-11-13T04:37:00,1.5,9.5,24,25
279,2023-11-13T04:38:00,1.5,9.5,24,25
280,2023-11-13T04:39:00,1,9,24,25
281,2023-11-13T04:40:00,1.5,9.5,24.5,25.5
282,2023-11-13T04:41:00,1.5,9.5,24.5,25.5
283,2023-11-13T04:42:00,1.5,9,24.5,25.5
284,2023-11-13T04:43:00,1.5,9.5,25,26
285,2023-11-13T04:44:00,1.5,9.5,25,26
286,2023-11-13T04:45:00,1.5,9,25,26
287,2023-11-13T04:46:00,1,9,25,26
288,2023-11-13T04:47:00,1.5,9,25.5,26.5
289,2023-11-13T04:48:00,1.5,9,25.5,26.5
290,2023-11-13T04:49:00,1.5,9,25.5,26.5
291,2023-11-13T04:50:00,1.5,9.5,26,27
292,2023-11-13T04:51:00,1.5,9,26,27
293,2023-11-13T04:52:00,1.5,9,26,27
294,2023-11-13T04:53:00,1.5,9.5,26.5,27.5
295,2023-11-13T04:54:00,1.5,9,26.5,27.5
296,2023-11-13T04:55:00,1.5,9,26.5,27.5
297,2023-11-13T04:56:00,2,9.5,27,28
298,2023-11-13T04:57:00,1.5,9,27,28
299,2023-11-13T04:58:00,1.5,9,27,28
300,2023-11-13T04:59:00,1.5,9,27,28
301,2023-11-13T05:00:00,1,8.5,27,28
302,2023-11-13T05:01:00,1,8.5,27,28
303,2023-11-13T05:02:00,1.5,9,27.5,28.5
304,2023-11-13T05:03:00,1,9,27.5,28.5
305,2023-11-13T05:04:00,1.5,9,28,29
306,2023-11-13T05:05:00,1.5,9,28,29
307,2023-11-13T05:06:00,1,9,28,29
308,2023-11-13T05:07:00,1.5,9,28.5,29.5
309,2023-11-13T05:08:00,1.5,9,28.5,29.5
310,2023-11-13T05:09:00,2,9.5,29,30
311,2023-11-13T05:10:00,2,9.5,29,30
312,2023-11-13T05:11:00,2,9,29,30
313,2023-11-13T05:12:00,2,9.5,29.5,30.5
314,2023-11-13T05:13:00,2,9.5,29.5,30.5
315,2023-11-13T05:14:00,1.5,9,29.5,30.5
316,2023-11-13T05:15:00,1.5,9,29.5,30.5
317,2023-11-13T05:16:00,2,9,30,31
318,2023-11-13T05:17:00,1.5,9,30,31
319,2023-11-13T05:18:00,1.5,9,30,31
320,2023-11-13T05:19:00,1,9,30,31
321,2023-11-13T05:20:00,1.5,9,30.5,31.5
322,2023-11-13T05:21:00,1.5,9,30.5,31.5
323,2023-11-13T05:22:00,1,9,30.5,31.5
324,2023-11-13T05:23:00,1.5,9,31,32
325,2023-11-13T05:24:00,1.5,9,31,32
326,2023-11-13T05:25:00,1.5,9,31,32
327,2023-11-13T05:26:00,1.5,9.5,31.5,32.5
328,2023-11-13T05:27:00,1.5,9,31.5,32.5
329,2023-11-13T05:28:00,1.5,9,31.5,32.5
330,2023-11-13T05:29:00,2,9,32,33
331,2023-11-13T05:30:00,1.5,9,32,33
332,2023-11-13T05:31:00,1.5,9,32,33
333,2023-11-13T05:32:00,1.5,9,32,33
334,2023-11-13T05:33:00,1.5,9,32.5,33.5
335,2023-11-13T05:34:00,1.5,9,32.5,33.5
336,2023-11-13T05:35:00,1.5,9,32.5,33.5
337,2023-11-13T05:36:00,1,8.5,32.5,33.5
338,2023-11-13T05:37:00,1,8.5,32.5,33.5
339,2023-11-13T05:38:00,1.5,9,33,34
340,2023-11-13T05:39:00,1,9,33,34
341,2023-11-13T05:40:00,1,8.5,33,34
342,2023-11-13T05:41:00,1,8.5,33,34
343,2023-11-13T05:42:00,1,8.5,33,34
344,2023-11-13T05:43:00,1,8.5,33.5,34.5
345,2023-11-13T05:44:00,1,8.5,33.5,34.5
346,2023-11-13T05:45:00,1,8.5,33.5,34.5
347,2023-11-13T05:46:00,1,8.5,33.5,34.5
348,2023-11-13T05:47:00,1.5,8.5,34,35
349,2023-11-13T05:48:00,1,8.5,34,35
350,2023-11-13T05:49:00,1,8.5,34,35
351,2023-11-13T05:50:00,1,8,34,35
352,2023-11-13T05:51:00,1.5,8.5,34.5,35.5
353,2023-11-13T05:52:00,1.5,8.5,34.5,35.5
354,2023-11-13T05:53:00,1,8,34.5,35.5
355,2023-11-13T05:54:00,1,8,34.5,35.5
356,2023-11-13T05:55:00,1,8,34.5,35.5
357,2023-11-13T05:56:00,1,7.5,34.5,35.5
358,2023-11-13T05:57:00,1,8,35,36
359,2023-11-13T05:58:00,1,8,35,36
360,2023-11-13T05:59:00,1,8,35,36
361,2023-11-13T06:00:00,1,8,35,36
362,2023-11-13T06:01:00,0.5,8,35,36
363,2023-11-13T06:02:00,0.5,7.5,35,36
364,2023-11-13T06:03:00,0.5,7.5,35,36
365,2023-11-13T06:04:00,0.5,7,35,36
366,2023-11-13T06:05:00,1,7.5,35.5,36.5
367,2023-11-13T06:06:00,1,7.5,35.5,36.5
368,2023-11-13T06:07:00,0.5,7,35.5,36.5
369,2023-11-13T06:08:00,0.5,7,35.5,36.5
370,2023-11-13T06:09:00,0.5,6.5,35.5,36.5
371,2023-11-13T06:10:00,1,7,36,37
372,2023-11-13T06:11:00,1,7,36,37
373,2023-11-13T06:12:00,1,6.5,36,37
374,2023-11-13T06:13:00,1,6.5,36,37
375,2023-11-13T06:14:00,1.5,7,36.5,37.5
376,2023-11-13T06:15:00,1,7,36.5,37.5
377,2023-11-13T06:16:00,1,6.5,36.5,37.5
378,2023-11-13T06:17:00,1,6.5,36.5,37.5
379,2023-11-13T06:18:00,1,6.5,36.5,37.5
380,2023-11-13T06:19:00,1.5,7,37,38
381,2023-11-13T06:20:00,1,6.5,37,38
382,2023-11-13T06:21:00,1,6.5,37,38
383,2023-11-13T06:22:00,1,6.5,37,38
384,2023-11-13T06:23:00,1,6,37,38
385,2023-11-13T06:24:00,0.5,6,37,38
386,2023-11-13T06:25:00,1,6.5,37.5,38.5
387,2023-11-13T06:26:00,1,6,37.5,38.5
388,2023-11-13T06:27:00,1,6,37.5,38.5
389,2023-11-13T06:28:00,1,6,37.5,38.5
390,2023-11-13T06:29:00,0.5,5.5,37.5,38.5
391,2023-11-13T06:30:00,0.5,5.5,37.5,38.5
392,2023-11-13T06:31:00,0.5,5.5,37.5,38.5
393,2023-11-13T06:32:00,1,6,38,39
394,2023-11-13T06:33:00,1,5.5,38,39
395,2023-11-13T06:34:00,1,5.5,38,39
396,2023-11-13T06:35:00,0.5,5.5,38,39
397,2023-11-13T06:36:00,0.5,5.5,38,39
398,2023-11-13T06:37:00,0.5,5.5,38,39
399,2023-11-13T06:38:00,0.5,5,38,39
400,2023-11-13T06:39:00,0.5,5,38,39
401,2023-11-13T06:40:00,1,5.5,38.5,39.5
402,2023-11-13T06:41:00,1,5.5,38.5,39.5
403,2023-11-13T06:42:00,0.5,5.5,38.5,39.5
404,2023-11-13T06:43:00,0.5,5,38.5,39.5
405,2023-11-13T06:44:00,0.5,5,38.5,39.5
406,2023-11-13T06:45:00,0.5,5,38.5,39.5
407,2023-11-13T06:46:00,0.5,5,38.5,39.5
408,2023-11-13T06:47:00,0.5,4.5,38.5,39.5
409,2023-11-13T06:48:00,0.5,4.5,38.5,39.5
410,2023-11-13T06:49:00,0.5,4.5,38.5,39.5
411,2023-11-13T06:50:00,0,4.5,38.5,39.5
412,2023-11-13T06:51:00,0,4,38.5,39.5
413,2023-11-13T06:52:00,0,4,38.5,39.5
414,2023-11-13T06:53:00,0.5,4.5,39,40
415,2023-11-13T06:54:00,0.5,4.5,39,40
416,2023-11-13T06:55:00,0.5,4.5,39,40
417,2023-11-13T06:56:00,0.5,4.5,39,40
418,2023-11-13T06:57:00,0.5,4,39,40
419,2023-11-13T06:58:00,0.5,4,39,40
420,2023-11-13T06:59:00,0.5,4,39,40
421,2023-11-13T07:00:00,0.5,4,39,40
422,2023-11-13T07:01:00,0.5,4,39,40
423,2023-11-13T07:02:00,0.5,4,39,40
424,2023-11-13T07:03:00,0,4,39,40
425,2023-11-13T07:04:00,0,4,39,40
426,2023-11-13T07:05:00,0,3.5,39,40
427,2023-11-13T07:06:00,0,3.5,39,40
428,2023-11-13T07:07:00,0.5,4,39.5,40.5
429,2023-11-13T07:08:00,0.5,4,39.5,40.5
430,2023-11-13T07:09:00,0.5,4,39.5,40.5
431,2023-11-13T07:10:00,0.5,3.5,39.5,40.5
432,2023-11-13T07:11:00,0.5,3.5,39.5,40.5
433,2023-11-13T07:12:00,0.5,3.5,39.5,40.5
434,2023-11-13T07:13:00,0.5,3.5,39.5,40.5
435,2023-11-13T07:14:00,0.5,3,39.5,40.5
436,2023-11-13T07:15:00,0.5,3,39.5,40.5
437,2023-11-13T07:16:00,0.5,3,39.5,40.5
438,2023-11-13T07:17:00,0,3,39.5,40.5
439,2023-11-13T07:18:00,0,3,39.5,40.5
440,2023-11-13T07:19:00,0,2.5,39.5,40.5
441,2023-11-13T07:20:00,0,2.5,39.5,40.5
442,2023-11-13T07:21:00,0,2.5,39.5,40.5
443,2023-11-13T07:22:00,,,,
444,2023-11-13T07:23:00,0,2.5,39.5,40.5
445,2023-11-13T07:24:00,0,2.5,39.5,40.5
446,2023-11-13T07:25:00,0,2,39.5,40.5
447,2023-11-13T07:26:00,0,2,39.5,40.5
448,2023-11-13T07:27:00,0,2,39.5,40.5
449,2023-11-13T07:28:00,0,2,39.5,40.5
450,2023-11-13T07:29:00,0,2,39.5,40.5
451,2023-11-13T07:30:00,0,2,39.5,40.5
452,2023-11-13T07:31:00,0,2,39.5,40.5
453,2023-11-13T07:32:00,0,1.5,39.5,40.5
454,2023-11-13T07:33:00,0,1.5,39.5,40.5
455,2023-11-13T07:34:00,0,1.5,39.5,40.5
456,2023-11-13T07:35:00,0,1.5,39.5,40.5
457,2023-11-13T07:36:00,0,1.5,39.5,40.5
458,2023-11-13T07:37:00,0,1.5,39.5,40.5
459,2023-11-13T07:38:00,0,1.5,39.5,40.5
460,2023-11-13T07:39:00,0,1.5,39.5,40.5
461,2023-11-13T07:40:00,0,1,39.5,40.5
462,2023-11-13T07:41:00,0,1,39.5,40.5
463,2023-11-13T07:42:00,0,1,39.5,40.5
464,2023-11-13T07:43:00,0,1,39.5,40.5
465,2023-11-13T07:44:00,0,1,39.5,40.5
466,2023-11-13T07:45:00,0,1,39.5,40.5
467,2023-11-13T07:46:00,0,1,39.5,40.5
468,2023-11-13T07:47:00,0,1,39.5,40.5
469,2023-11-13T07:48:00,0,1,39.5,40.5
470,2023-11-13T07:49:00,0,1,39.5,40.5
471,2023-11-13T07:50:00,0.5,1.5,40,41
472,2023-11-13T07:51:00,0.5,1.5,40,41
473,2023-11-13T07:52:00,0.5,1.5,40,41
474,2023-11-13T07:53:00,0.5,1,40,41
475,2023-11-13T07:54:00,0.5,1,40,41
476,2023-11-13T07:55:00,0.5,1,40,41
477,2023-11-13T07:56:00,0.5,1,40,41
478,2023-11-13T07:57:00,0.5,1,40,41
479,2023-11-13T07:58:00,0.5,1,40,41
480,2023-11-13T07:59:00,0.5,1,40,41
481,2023-11-13T08:00:00,0,1,40,41
482,2023-11-13T08:01:00,0,1,40,41
483,2023-11-13T08:02:00,0,1,40,41
484,2023-11-13T08:03:00,0,1,40,41
485,2023-11-13T08:04:00,0,1,40,41
486,2023-11-13T08:05:00,0,1,40,41
487,2023-11-13T08:06:00,0,1,40,41
488,2023-11-13T08:07:00,0,0.5,40,41
489,2023-11-13T08:08:00,0,0.5,40,41
490,2023-11-13T08:09:00,0,0.5,40,41
491,2023-11-13T08:10:00,0,0.5,40,41
492,2023-11-13T08:11:00,0,0.5,40,41
493,2023-11-13T08:12:00,0,0.5,40,41
494,2023-11-13T08:13:00,0,0.5,40,41
495,2023-11-13T08:14:00,0,0.5,40,41
496,2023-11-13T08:15:00,0,0.5,40,41
497,2023-11-13T08:16:00,0,0.5,40,41
498,2023-11-13T08:17:00,0,0.5,40,41
499,2023-11-13T08:18:00,0,0.5,40,41
500,2023-11-13T08:19:00,0,0.5,40,41
501,2023-11-13T08:20:00,0,0.5,40,41
502,2023-11-13T08:21:00,0,0.5,40,41
503,2023-11-13T08:22:00,0,0.5,40,41
504,2023-11-13T08:23:00,0,0.5,40,41
505,2023-11-13T08:24:00,0,0.5,40,41
506,2023-11-13T08:25:00,0,0.5,40,41
507,2023-11-13T08:26:00,0,0.5,40,41
508,2023-11-13T08:27:00,0,0.5,40,41
509,2023-11-13T08:28:00,0,0.5,40,41
510,2023-11-13T08:29:00,0,0.5,40,41
511,2023-11-13T08:30:00,0,0.5,40,41
512,2023-11-13T08:31:00,0,0.5,40,41
513,2023-11-13T08:32:00,0,0.5,40,41
514,2023-11-13T08:33:00,0,0.5,40,41
515,2023-11-13T08:34:00,0,0.5,40,41
516,2023-11-13T08:35:00,0,0.5,40,41
517,2023-11-13T08:36:00,0,0.5,40,41
518,2023-11-13T08:37:00,0,0.5,40,41
519,2023-11-13T08:38:00,0,0.5,40,41
520,2023-11-13T08:39:00,0,0.5,40,41
521,2023-11-13T08:40:00,0,0.5,40,41
522,2023-11-13T08:41:00,0,0.5,40,41
523,2023-11-13T08:42:00,0,0.5,40,41
524,2023-11-13T08:43:00,0,0.5,40,41
525,2023-11-13T08:44:00,0,0.5,40,41
526,2023-11-13T08:45:00,0,0.5,40,41
527,2023-11-13T08:46:00,0,0.5,40,41
528,2023-11-13T08:47:00,0,0.5,40,41
529,2023-11-13T08:48:00,0,0.5,40,41
530,2023-11-13T08:49:00,0,0.5,40,41
531,2023-11-13T08:50:00,0,0,40,41
532,2023-11-13T08:51:00,0,0,40,41
533,2023-11-13T08:52:00,0,0,40,41
534,2023-11-13T08:53:00,0,0,40,41
535,2023-11-13T08:54:00,0,0,40,41
536,2023-11-13T08:55:00,0,0,40,41
537,2023-11-13T08:56:00,0,0,40,41
538,2023-11-13T08:57:00,0,0,40,41
539,2023-11-13T08:58:00,0,0,40,41
540,2023-11-13T08:59:00,0,0,40,41
541,2023-11-13T09:00:00,0,0,40,41
542,2023-11-13T09:01:00,0,0,40,41
543,2023-11-13T09:02:00,0,0,40,41
544,2023-11-13T09:03:00,0,0,40,41
545,2023-11-13T09:04:00,0,0,40,41
546,2023-11-13T09:05:00,0,0,40,41
547,2023-11-13T09:06:00,0,0,40,41
548,2023-11-13T09:07:00,0,0,40,41
549,2023-11-13T09:08:00,0,0,40,41
550,2023-11-13T09:09:00,0,0,40,41
551,2023-11-13T09:10:00,0,0,40,41
552,2023-11-13T09:11:00,0,0,40,41
553,2023-11-13T09:12:00,0,0,40,41
554,2023-11-13T09:13:00,0,0,40,41
555,2023-11-13T09:14:00,0,0,40,41
556,2023-11-13T09:15:00,0,0,40,41
557,2023-11-13T09:16:00,0,0,40,41
558,2023-11-13T09:17:00,0,0,40,41
559,2023-11-13T09:18:00,0,0,40,41
560,2023-11-13T09:19:00,0,0,40,41
561,2023-11-13T09:20:00,0,0,40,41
562,2023-11-13T09:21:00,0,0,40,41
563,2023-11-13T09:22:00,0,0,40,41
564,2023-11-13T09:23:00,0,0,40,41
565,2023-11-13T09:24:00,0,0,40,41
566,2023-11-13T09:25:00,0,0,40,41
567,2023-11-13T09:26:00,0,0,40,41
568,2023-11-13T09:27:00,0,0,40,41
569,2023-11-13T09:28:00,0,0,40,41
570,2023-11-13T09:29:00,0,0,40,41
571,2023-11-13T09:30:00,0,0,40,41
572,2023-11-13T09:31:00,0,0,40,41
573,2023-11-13T09:32:00,0,0,40,41
574,2023-11-13T09:33:00,0,0,40,41
575,2023-11-13T09:34:00,0,0,40,41
576,2023-11-13T09:35:00,0,0,40,41
577,2023-11-13T09:36:00,0,0,40,41
578,2023-11-13T09:37:00,0,0,40,41
579,2023-11-13T09:38:00,0,0,40,41
580,2023-11-13T09:39:00,0,0,40,41
581,2023-11-13T09:40:00,0,0,40,41
582,2023-11-13T09:41:00,0,0,40,41
583,2023-11-13T09:42:00,0,0,40,41
584,2023-11-13T09:43:00,0,0,40,41
585,2023-11-13T09:44:00,0,0,40,41
586,2023-11-13T09:45:00,0,0,40,41
587,2023-11-13T09:46:00,0,0,40,41
588,2023-11-13T09:47:00,0,0,40,41
589,2023-11-13T09:48:00,0,0,40,41
590,2023-11-13T09:49:00,0,0,40,41
591,2023-11-13T09:50:00,0,0,40,41
592,2023-11-13T09:51:00,0,0,40,41
593,2023-11-13T09:52:00,0,0,40,41
594,2023-11-13T09:53:00,0,0,40,41
595,2023-11-13T09:54:00,0,0,40,41
596,2023-11-13T09:55:00,0,0,40,41
597,2023-11-13T09:56:00,0,0,40,41
598,2023-11-13T09:57:00,0,0,40,41
599,2023-11-13T09:58:00,0,0,40,41
600,2023-11-13T09:59:00,0,0,40,41
601,2023-11-13T10:00:00,0,0,40,41
602,2023-11-13T10:01:00,0,0,40,41
603,2023-11-13T10:02:00,0,0,40,41
604,2023-11-13T10:03:00,0,0,40,41
605,2023-11-13T10:04:00,0,0,40,41
606,2023-11-13T10:05:00,0,0,40,41
607,2023-11-13T10:06:00,0.5,0.5,40.5,41.5
608,2023-11-13T10:07:00,0.5,0.5,40.5,41.5
609,2023-11-13T10:08:00,0.5,0.5,40.5,41.5
610,2023-11-13T10:09:00,0.5,0.5,40.5,41.5
611,2023-11-13T10:10:00,0.5,0.5,40.5,41.5
612,2023-11-13T10:11:00,0.5,0.5,40.5,41.5
613,2023-11-13T10:12:00,0.5,0.5,40.5,41.5
614,2023-11-13T10:13:00,0.5,0.5,40.5,41.5
615,2023-11-13T10:14:00,0.5,0.5,40.5,41.5
616,2023-11-13T10:15:00,0.5,0.5,40.5,41.5
617,2023-11-13T10:16:00,0,0.5,40.5,41.5
618,2023-11-13T10:17:00,0,0.5,40.5,41.5
619,2023-11-13T10:18:00,0,0.5,40.5,41.5
620,2023-11-13T10:19:00,0,0.5,40.5,41.5
621,2023-11-13T10:20:00,0,0.5,40.5,41.5
622,2023-11-13T10:21:00,0,0.5,40.5,41.5
623,2023-11-13T10:22:00,0,0.5,40.5,41.5
624,2023-11-13T10:23:00,0,0.5,40.5,41.5
625,2023-11-13T10:24:00,0,0.5,40.5,41.5
626,2023-11-13T10:25:00,0,0.5,40.5,41.5
627,2023-11-13T10:26:00,0,0.5,40.5,41.5
628,2023-11-13T10:27:00,0,0.5,40.5,41.5
629,2023-11-13T10:28:00,0,0.5,40.5,41.5
630,2023-11-13T10:29:00,0,0.5,40.5,41.5
631,2023-11-13T10:30:00,0,0.5,40.5,41.5
632,2023-11-13T10:31:00,0,0.5,40.5,41.5
633,2023-11-13T10:32:00,0,0.5,40.5,41.5
634,2023-11-13T10:33:00,0,0.5,40.5,41.5
635,2023-11-13T10:34:00,0,0.5,40.5,41.5
636,2023-11-13T10:35:00,0,0.5,40.5,41.5
637,2023-11-13T10:36:00,0,0.5,40.5,41.5
638,2023-11-13T10:37:00,0,0.5,40.5,41.5
639,2023-11-13T10:38:00,0,0.5,40.5,41.5
640,2023-11-13T10:39:00,0,0.5,40.5,41.5
641,2023-11-13T10:40:00,0,0.5,40.5,41.5
642,2023-11-13T10:41:00,0,0.5,40.5,41.5
643,2023-11-13T10:42:00,0,0.5,40.5,41.5
644,2023-11-13T10:43:00,0,0.5,40.5,41.5
645,2023-11-13T10:44:00,0,0.5,40.5,41.5
646,2023-11-13T10:45:00,0,0.5,40.5,41.5
647,2023-11-13T10:46:00,0,0.5,40.5,41.5
648,2023-11-13T10:47:00,0,0.5,40.5,41.5
649,2023-11-13T10:48:00,0,0.5,40.5,41.5
650,2023-11-13T10:49:00,0,0.5,40.5,41.5
651,2023-11-13T10:50:00,0,0.5,40.5,41.5
652,2023-11-13T10:51:00,0,0.5,40.5,41.5
653,2023-11-13T10:52:00,0,0.5,40.5,41.5
654,2023-11-13T10:53:00,0,0.5,40.5,41.5
655,2023-11-13T10:54:00,0,0.5,40.5,41.5
656,2023-11-13T10:55:00,0,0.5,40.5,41.5
657,2023-11-13T10:56:00,0,0.5,40.5,41.5
658,2023-11-13T10:57:00,0,0.5,40.5,41.5